Location: Windsor
(43.2292°N, 89.3015°W)
Time: 14:30:22
(UTC+00:00)

DIWATA 2B (PO-101) - Pass Details

Date: 04 July 2022
Orbit: 583 x 599 km, 98.0° (Epoch: 19 August)

Event Time Altitude Azimuth Distance (km) Brightness Sun altitude
Exits shadow 06:53:42 14° 110° (ESE) 1,695 ? -22.8°
Maximum altitude 06:56:11 23° 66° (ENE) 1,308 ? -22.7°
Drops below altitude 10° 06:59:29 10° 15° (NNE) 1,949 ? -22.6°
Sets 07:02:00 0° 1° (N) 2,856 ? -22.5°
